Location: Burbank
(38.7788°N, 114.0429°W)
Time: 03:41:59
(UTC+00:00)

Transit 2A Rocket - Pass Details

Date: 13 May 2026
Orbit: 589 x 893 km, 66.7° (Epoch: 9 June)

Event Time Altitude Azimuth Distance (km) Brightness Sun altitude
Rises 11:03:18 0° 342° (NNW) 2,996 8.4 -14.5°
Reaches altitude 10° 11:06:02 10° 356° (N) 2,033 7.7 -14.1°
Maximum altitude 11:09:45 24° 51° (NE) 1,277 7.2 -13.5°
Drops below altitude 10° 11:13:18 10° 106° (ESE) 1,934 7.6 -12.9°
Sets 11:15:50 0° 120° (ESE) 2,815 8.3 -12.5°
